Wind_Speed
11 12 12 11 8 6 8 4 1 6 13 4 3 4 5 2 3 4 3 3 4 7 7 5 3 4 4 3 5 5 2 4 4 3 1 1 2 4 4 3 3 1 1 6
12 11 12 11 9 7 8 4 4 7 15 4 2 3 3 3 2 4 3 4 5 2 5 3 4 3 0 3 5 4 6 0 1 1 1 3 3 3 4 4 2 6 4 5
12 11 12 12 11 9 11 3 1 4 11 5 6 4 4 4 5 5 4 2 3 3 2 2 4 4 1 2 3 4 4 3 5 6 4 4 4 4 4 4 3 4 7 7
13 11 11 14 14 12 11 6 4 4 3 4 6 5 2 4 4 5 4 2 6 6 6 3 4 2 2 0 3 1 4 4 3 5 6 4 5 5 9 9 6 8 3 10
15 12 12 16 17 15 15 5 4 4 2 3 6 5 6 8 3 5 3 4 4 5 7 8 7 6 4 6 2 5 1 2 3 4 1 5 5 9 12 14 4 12 13 23
17 14 12 16 20 20 13 16 5 3 2 4 5 5 7 8 4 5 3 6 3 3 7 5 2 7 4 9 8 7 4 5 3 5 2 4 6 10 10 5 5 8 9 13
20 16 14 13 21 24 21 14 10 5 3 3 5 3 7 7 7 3 1 3 5 2 10 15 14 15 15 11 8 4 6 5 1 3 3 2 6 2 5 9 8 17 12 7
21 19 17 14 17 23 27 21 13 9 3 6 4 6 3 3 3 4 3 4 2 15 5 4 3 3 2 3 4 3 2 4 1 2 3 6 5 4 6 6 8 10 21 14
24 22 18 17 15 20 25 27 19 10 3 7 10 7 9 4 3 1 2 1 7 4 3 3 5 6 5 3 2 3 4 5 3 2 4 5 5 2 6 3 6 3 14 8
26 23 19 17 17 17 21 23 26 18 7 10 10 5 6 8 6 3 2 4 5 4 2 2 3 5 5 5 7 5 3 1 5 2 3 8 7 6 8 0 6 12 6 9
27 24 20 18 17 17 20 24 24 24 17 11 13 12 9 8 7 5 8 5 2 3 1 3 4 4 7 4 5 7 8 8 4 3 2 8 11 8 6 3 6 10 10 6
28 24 21 19 18 17 16 19 25 24 17 8 18 14 13 12 9 9 12 3 4 8 2 1 2 2 1 4 4 1 3 7 6 10 7 2 17 9 10 13 19 18 15 14
30 25 22 21 19 17 17 17 21 20 14 16 21 17 16 20 14 11 6 5 6 3 5 5 2 4 4 4 6 4 4 5 4 2 5 14 23 23 24 24 27 27 25 28
33 24 24 23 19 17 16 15 19 23 7 6 10 15 24 24 19 22 22 17 7 4 4 4 2 3 6 3 3 5 4 8 5 5 10 20 26 12 6 12 13 20 27 23
35 29 27 24 20 16 14 14 17 25 12 5 3 6 9 15 22 25 18 19 18 11 4 2 3 3 2 2 1 3 8 6 5 5 7 3 14 19 24 31 35 33 25 23
37 31 29 25 22 17 13 7 18 23 21 2 2 3 7 10 14 16 18 17 16 12 7 6 6 6 6 3 6 6 23 23 20 16 20 22 27 26 29 32 22 21 20 25
37 31 29 26 22 19 14 5 5 25 20 4 3 4 4 8 10 11 11 13 9 9 5 6 5 6 8 2 16 7 8 15 24 25 28 33 33 29 43 48 51 46 47 48
36 31 29 24 20 17 11 4 8 24 18 5 2 3 2 8 6 5 9 9 10 6 3 3 4 3 5 5 3 6 15 25 32 36 40 45 46 46 47 42 43 44 45 44
37 32 27 21 14 9 12 11 11 19 7 5 4 4 4 9 4 5 6 6 2 4 3 4 5 3 6 5 4 11 18 16 25 31 35 36 38 44 47 43 43 42 44 45
42 37 18 7 12 12 20 12 8 9 7 7 4 4 3 7 4 2 4 2 3 2 4 3 3 4 13 18 20 14 15 22 28 28 29 27 32 35 36 38 38 38 37 37
43 13 9 19 26 14 4 5 5 6 4 10 7 14 4 8 3 3 3 2 3 3 3 3 2 3 3 10 11 10 11 13 16 18 23 27 31 39 42 44 43 46 43 37
28 21 33 31 7 6 4 4 2 4 6 10 9 10 6 7 5 5 4 3 2 4 7 2 3 4 2 8 10 10 11 13 17 18 20 23 25 27 31 36 41 43 44 42
43 14 9 8 7 5 8 9 5 4 8 14 15 7 8 5 3 4 3 4 4 7 3 4 4 5 1 5 9 12 15 19 21 22 23 25 25 24 26 31 30 35 39 38
8 9 7 6 5 7 6 5 5 9 15 27 26 9 6 4 3 2 4 3 3 3 3 5 3 8 2 3 8 14 18 20 23 26 27 27 28 29 27 25 24 25 32 34
7 9 6 8 8 5 9 10 13 15 31 30 16 7 5 3 4 3 2 4 4 5 5 3 10 5 5 7 10 14 19 20 22 25 29 28 27 29 29 24 22 20 23 27
10 7 5 3 7 4 11 14 18 27 30 24 6 4 4 3 3 4 5 4 7 4 3 10 9 3 2 7 11 14 18 20 21 22 25 29 29 27 28 25 21 19 18 19
7 2 9 9 6 9 16 18 21 30 28 3 4 5 4 4 3 4 5 5 3 10 14 12 5 2 6 8 10 14 16 19 21 22 23 24 28 27 28 29 27 22 18 15
Wind_Direction
260 250 248 246 249 268 229 214 223 191 175 127 125 168 203 243 261 210 254 174 178 190 167 176 228 213 203 154 164 160 193 134 185 198 332 135 213 188 162 126 212 61 121 270
265 251 239 233 233 233 193 230 226 188 185 161 221 253 257 237 233 222 206 226 199 193 178 182 192 192 23 171 155 167 189 251 11 305 12 357 234 196 121 110 102 203 153 261
264 254 235 220 219 211 196 217 193 186 198 178 146 164 230 214 222 240 220 198 138 135 184 241 176 184 175 186 184 151 138 154 187 202 199 130 190 190 192 146 148 183 230 280
255 251 230 213 211 205 197 210 250 183 211 231 161 165 188 187 210 214 204 223 206 183 189 170 197 133 132 58 161 71 135 220 187 258 234 187 214 185 182 204 200 203 255 219
247 243 228 211 206 201 209 207 182 188 166 148 149 164 218 188 215 180 236 196 227 198 187 188 206 149 193 199 165 170 301 198 155 281 123 199 255 234 208 221 242 270 280 277
240 235 230 213 205 203 207 218 219 186 174 150 127 213 203 205 183 223 223 211 166 189 237 228 218 183 132 159 152 174 163 148 127 264 0 304 280 233 188 182 213 203 218 245
235 227 228 221 210 207 206 209 211 202 246 181 196 182 197 214 216 232 174 197 169 223 130 110 98 86 92 95 64 125 142 126 114 234 353 268 250 125 172 196 230 213 259 239
233 233 225 226 219 213 210 215 205 207 220 204 199 191 190 135 129 199 218 224 207 155 144 65 59 355 59 62 40 63 51 123 100 170 203 297 286 190 163 183 281 217 231 243
226 231 228 227 223 216 218 214 219 222 167 235 214 179 180 167 171 360 189 172 178 179 88 98 167 201 200 207 152 66 80 74 120 124 178 226 243 170 182 176 297 348 221 218
221 227 227 225 220 218 216 213 218 214 226 236 189 183 183 169 149 148 153 164 168 196 97 117 162 228 166 178 179 167 113 51 178 190 263 286 244 151 149 99 253 331 343 231
219 218 224 221 217 217 216 215 213 215 224 234 218 206 181 174 176 154 161 108 193 58 129 155 215 196 215 157 167 177 168 158 194 102 146 269 151 122 180 233 337 335 331 282
224 214 213 217 214 214 214 216 211 218 223 242 230 227 212 199 190 177 179 179 183 206 99 248 105 193 129 163 225 9 246 194 182 188 210 223 195 222 225 291 291 300 311 323
223 220 208 216 213 213 213 216 204 210 228 252 249 242 228 224 226 208 163 207 209 206 227 171 192 232 137 174 233 205 247 175 207 128 237 248 264 257 272 286 283 300 303 284
213 214 208 213 214 210 211 210 205 203 198 227 244 233 237 235 229 233 236 239 235 213 216 228 159 184 190 224 265 199 190 143 188 262 286 283 282 304 322 336 325 328 327 314
210 203 206 208 208 201 203 206 207 198 196 206 250 251 226 224 227 222 222 224 232 229 212 159 235 232 186 215 17 230 192 186 179 228 233 273 292 311 315 311 313 319 315 318
208 198 194 200 201 192 182 208 213 202 206 316 310 250 222 209 207 209 213 219 225 218 199 205 223 221 215 204 240 232 244 246 255 267 288 297 296 302 303 305 319 326 325 328
204 193 186 192 198 189 179 193 212 190 188 218 284 277 209 191 170 177 187 195 196 204 213 226 238 206 213 265 260 247 292 282 284 286 292 293 289 288 295 291 290 293 291 295
193 183 178 179 187 189 190 159 156 171 176 197 182 258 262 187 163 136 160 170 185 202 229 210 223 207 224 255 343 323 269 265 267 268 268 271 279 284 286 287 286 285 288 287
171 171 163 158 180 184 180 158 158 169 182 186 208 193 216 171 133 129 141 163 127 191 212 242 178 199 220 211 4 322 304 287 283 282 277 277 276 280 284 286 286 283 282 282
160 155 141 159 183 158 154 158 177 188 220 210 217 196 217 167 148 101 114 161 166 167 232 205 225 256 279 280 295 308 313 293 283 286 287 285 283 284 286 286 286 286 287 289
152 143 138 143 140 137 148 164 178 194 225 210 198 184 158 188 132 154 188 178 181 204 177 190 248 263 251 339 332 331 327 315 306 293 284 280 279 278 279 277 273 274 274 275
157 133 130 134 154 162 165 192 235 194 218 188 160 169 161 156 155 108 153 169 188 232 149 207 252 233 337 346 345 357 359 348 331 325 311 303 298 294 289 281 273 273 274 271
123 120 142 166 169 171 196 186 202 207 185 180 147 136 146 140 146 92 144 177 216 138 203 227 221 160 20 357 352 360 15 15 359 346 334 325 316 309 303 294 286 271 270 272
114 147 132 188 188 222 192 181 169 185 161 143 138 124 138 133 128 136 179 185 183 228 233 230 176 177 229 326 345 340 352 1 356 350 347 341 335 326 322 311 299 286 268 266
131 147 189 195 210 206 193 167 135 141 145 142 124 111 125 130 156 193 136 173 231 222 226 205 174 199 277 319 338 338 341 343 342 345 347 346 343 338 334 331 322 303 281 270
154 174 119 149 148 156 165 158 136 149 147 146 125 130 139 150 158 161 198 197 221 233 189 168 178 205 300 334 334 337 335 342 340 335 337 345 347 344 343 343 339 326 306 289
155 188 182 161 137 156 164 162 157 159 154 141 141 138 173 109 167 212 195 212 214 168 164 164 159 267 318 325 332 327 321 327 334 336 337 333 339 348 349 351 349 346 337 317
Height
1509 1510 1513 1515 1517 1519 1521 1521 1522 1520 1521 1527 1528 1533 1529 1526 1524 1525 1525 1527 1527 1531 1532 1536 1539 1537 1536 1537 1539 1542 1543 1550 1556 1554 1558 1557 1558 1558 1561 1563 1569 1588 1578 1537
1506 1507 1508 1511 1514 1516 1517 1519 1519 1518 1520 1527 1530 1526 1524 1524 1524 1524 1524 1525 1524 1526 1529 1531 1534 1534 1538 1537 1538 1542 1543 1551 1553 1551 1559 1559 1558 1557 1562 1569 1574 1576 1560 1526
1503 1504 1505 1508 1511 1513 1517 1518 1517 1517 1518 1516 1518 1522 1522 1521 1519 1522 1522 1522 1522 1525 1528 1529 1530 1534 1537 1537 1538 1537 1540 1549 1542 1546 1538 1547 1553 1556 1560 1555 1563 1557 1544 1519
1498 1500 1502 1504 1508 1510 1514 1515 1513 1512 1518 1516 1514 1518 1519 1519 1520 1518 1520 1522 1521 1523 1528 1529 1531 1533 1537 1538 1538 1539 1539 1544 1548 1542 1541 1542 1539 1543 1553 1555 1540 1530 1516 1525
1494 1496 1498 1500 1504 1507 1511 1510 1509 1511 1512 1513 1515 1517 1518 1518 1516 1517 1518 1521 1518 1519 1523 1520 1524 1529 1533 1530 1538 1539 1541 1541 1545 1538 1537 1542 1541 1538 1539 1539 1540 1536 1528 1511
1488 1491 1494 1496 1499 1503 1506 1508 1507 1507 1511 1511 1513 1514 1513 1513 1514 1513 1513 1515 1518 1519 1517 1517 1517 1519 1521 1523 1529 1536 1541 1543 1545 1537 1539 1539 1535 1520 1525 1528 1527 1519 1520 1489
1484 1485 1489 1492 1494 1497 1501 1503 1507 1507 1509 1508 1506 1506 1509 1510 1512 1515 1514 1515 1516 1516 1515 1517 1519 1520 1522 1525 1529 1531 1539 1542 1550 1543 1535 1539 1504 1507 1509 1509 1503 1503 1493 1486
1480 1482 1484 1487 1489 1492 1497 1500 1503 1503 1504 1503 1503 1503 1506 1507 1508 1513 1513 1516 1515 1516 1516 1522 1526 1528 1523 1530 1532 1532 1534 1540 1554 1544 1540 1519 1494 1505 1508 1506 1488 1481 1482 1479
1472 1476 1479 1482 1484 1486 1490 1496 1499 1501 1501 1497 1496 1498 1500 1505 1508 1511 1511 1514 1515 1516 1518 1525 1526 1526 1521 1528 1531 1534 1536 1537 1543 1558 1542 1523 1498 1496 1498 1500 1498 1477 1476 1476
1465 1471 1474 1477 1479 1482 1485 1489 1495 1497 1496 1494 1494 1494 1497 1498 1502 1507 1509 1511 1515 1517 1524 1531 1531 1519 1516 1520 1523 1533 1539 1544 1541 1547 1543 1518 1494 1495 1498 1501 1494 1476 1473 1475
1459 1463 1469 1472 1475 1477 1480 1483 1489 1493 1491 1491 1491 1490 1491 1495 1496 1501 1505 1510 1512 1518 1525 1526 1520 1518 1511 1512 1513 1519 1519 1532 1537 1546 1543 1520 1489 1495 1497 1485 1479 1478 1475 1472
1453 1456 1463 1467 1470 1474 1475 1479 1484 1489 1490 1489 1489 1489 1489 1490 1492 1494 1498 1500 1502 1504 1513 1516 1513 1509 1514 1508 1509 1511 1513 1500 1508 1508 1496 1480 1481 1478 1479 1478 1476 1475 1475 1475
1447 1452 1458 1463 1466 1469 1470 1474 1480 1484 1487 1488 1486 1485 1485 1486 1489 1490 1494 1497 1498 1499 1502 1503 1507 1506 1505 1508 1503 1497 1496 1493 1496 1495 1477 1475 1476 1478 1478 1475 1474 1473 1471 1471
1438 1445 1453 1459 1463 1466 1467 1470 1475 1481 1483 1484 1478 1478 1482 1481 1483 1486 1489 1492 1495 1496 1500 1500 1501 1504 1495 1496 1491 1490 1488 1490 1489 1486 1476 1473 1470 1473 1473 1473 1473 1471 1468 1465
1432 1437 1450 1456 1458 1460 1463 1466 1470 1476 1479 1476 1475 1474 1475 1475 1476 1480 1484 1486 1490 1493 1497 1499 1499 1494 1495 1490 1490 1488 1482 1481 1484 1481 1472 1472 1470 1470 1470 1468 1468 1467 1464 1460
1427 1433 1440 1451 1455 1456 1461 1465 1465 1470 1474 1476 1475 1471 1471 1471 1471 1474 1477 1480 1485 1489 1490 1490 1488 1486 1488 1488 1475 1468 1470 1474 1474 1472 1472 1470 1468 1468 1468 1467 1465 1463 1462 1459
1424 1431 1435 1446 1454 1455 1456 1457 1459 1463 1472 1476 1475 1468 1468 1468 1468 1471 1473 1476 1479 1484 1486 1485 1483 1482 1483 1479 1460 1468 1469 1470 1469 1469 1470 1466 1464 1460 1459 1458 1457 1457 1455 1453
1419 1431 1434 1442 1450 1455 1455 1456 1456 1461 1468 1470 1472 1468 1468 1468 1466 1467 1470 1474 1476 1479 1480 1481 1479 1479 1477 1468 1458 1458 1462 1463 1461 1460 1460 1456 1453 1450 1448 1449 1448 1446 1443 1442
1414 1426 1433 1438 1451 1454 1453 1457 1459 1461 1466 1464 1465 1462 1464 1464 1465 1465 1468 1471 1476 1476 1477 1476 1477 1473 1465 1454 1453 1454 1456 1456 1453 1450 1448 1448 1446 1441 1439 1438 1436 1436 1434 1432
1409 1421 1430 1440 1448 1449 1453 1460 1462 1462 1461 1460 1455 1457 1460 1460 1462 1465 1469 1469 1471 1479 1473 1472 1470 1458 1452 1449 1448 1448 1446 1446 1444 1440 1437 1438 1435 1433 1430 1427 1427 1425 1425 1424
1403 1417 1426 1436 1444 1448 1453 1456 1459 1459 1456 1449 1444 1450 1453 1456 1458 1461 1465 1470 1470 1468 1465 1469 1462 1458 1449 1448 1446 1444 1440 1437 1436 1435 1431 1429 1427 1422 1419 1415 1415 1413 1414 1414
1393 1405 1421 1433 1442 1445 1449 1452 1450 1448 1442 1436 1434 1443 1449 1452 1455 1455 1462 1465 1469 1461 1463 1464 1455 1444 1442 1444 1444 1440 1433 1429 1429 1428 1423 1420 1417 1414 1409 1404 1400 1400 1399 1400
1391 1409 1420 1424 1432 1433 1435 1435 1433 1434 1426 1426 1425 1438 1445 1451 1453 1456 1459 1462 1461 1461 1458 1448 1441 1435 1438 1439 1440 1437 1429 1422 1424 1423 1419 1414 1409 1404 1401 1394 1390 1388 1387 1386
1386 1399 1413 1414 1416 1409 1402 1402 1404 1407 1411 1412 1422 1434 1442 1447 1449 1452 1455 1455 1458 1453 1446 1434 1428 1430 1433 1433 1433 1433 1424 1418 1419 1418 1413 1407 1402 1396 1392 1387 1381 1377 1374 1375
1381 1389 1392 1395 1390 1391 1392 1396 1399 1401 1406 1412 1424 1433 1438 1441 1446 1449 1449 1452 1447 1440 1426 1425 1425 1427 1429 1429 1428 1426 1420 1416 1415 1414 1410 1403 1398 1392 1385 1380 1374 1369 1366 1365
1371 1376 1381 1383 1386 1389 1391 1393 1396 1401 1407 1414 1418 1426 1432 1435 1438 1440 1439 1439 1431 1420 1417 1418 1419 1423 1425 1425 1424 1421 1418 1414 1412 1411 1407 1402 1396 1389 1382 1376 1370 1364 1360 1358
1364 1369 1371 1374 1376 1379 1385 1388 1394 1400 1405 1408 1413 1417 1422 1428 1431 1434 1429 1422 1411 1409 1413 1415 1417 1422 1424 1421 1418 1416 1415 1412 1411 1408 1404 1399 1395 1388 1380 1371 1366 1360 1357 1353